[[{"header":{"parameterUnit":"m.s-1","parameterCategory":1,"la1":30.2991,"la2":30.254,"lo1":-89.0895,"lo2":-89.0444,"dy":0.0017,"dx":0.0017,"nx":28,"ny":28,"refTime":"2024-03-13T09:00:00:Z","depth":0,"parameterNumber":2,"parameterNumberName":"U-component_of_WINDS"},"data":[0,0,0,0,0,0,0,0,0,0,0,0,0,0,0,0,0,0,0,0,0,0,0,0,0,0,0,0,0,0,0,0,0,0,0,0,0,0,0,0,0,0,0,0,0,0,0,0,0,0,0,0,0,0,0,0,0,0,-0.0345,-0.0344,0,-0.0274,-0.0273,-0.0273,-0.0254,-0.0255,-0.0255,-0.0256,-0.0185,-0.0183,-0.0181,0,0,0,0,0,0,0,0,0,0,0,0,0,-0.0468,-0.0466,-0.0345,-0.0344,-0.0343,-0.0274,-0.0273,-0.0272,-0.0254,-0.0255,-0.0255,-0.0256,-0.0186,-0.0183,-0.0181,0,0,0,0,0,0,0,0,0,0,0,0,0,-0.0408,-0.0465,-0.0345,-0.0326,-0.0323,-0.0275,-0.0273,-0.0272,-0.0254,-0.0255,-0.0255,-0.0256,-0.0187,-0.0184,-0.018,-0.0146,0,0,-0.017,-0.0168,0,0,0,0,0,0,0,0,-0.0411,-0.0403,-0.033,-0.0327,-0.0324,-0.0274,-0.0291,-0.023,-0.0254,-0.028,-0.0256,-0.0256,-0.0214,-0.0209,-0.0194,-0.0143,-0.014,-0.0169,-0.0167,-0.0166,-0.0165,0,0,0,0,0,0,0,-0.0416,-0.0406,-0.0317,-0.0329,-0.0325,-0.0322,-0.0314,-0.0279,-0.0245,-0.0278,-0.0277,-0.0268,-0.0213,-0.0197,-0.0192,-0.0139,-0.017,-0.0166,-0.0164,-0.0163,-0.0059,-0.0058,0,0,0,0,0,0,-0.0423,-0.041,-0.0319,-0.0315,-0.037,-0.0319,-0.031,-0.0289,-0.0245,-0.0239,-0.0268,-0.0268,-0.0203,-0.0196,-0.019,-0.0148,-0.0166,-0.0163,-0.0161,-0.0059,-0.0058,-0.0058,0,0,0,0,0,0,-0.0425,-0.0415,-0.0322,-0.0362,-0.035,-0.0316,-0.0293,-0.0288,-0.0272,-0.0237,-0.0231,-0.0258,-0.0203,-0.0194,-0.0157,-0.0146,-0.0161,-0.0158,-0.006,-0.0059,-0.0058,-0.0064,0,0,0,0,0,0,-0.0429,-0.0416,-0.0401,-0.0362,-0.0348,-0.029,-0.0292,-0.0286,-0.0266,-0.0265,-0.0226,-0.0221,-0.0203,-0.0163,-0.0154,-0.0141,-0.0155,-0.0061,-0.006,-0.0058,-0.0065,-0.0064,-0.0062,0,0,0,0,0,-0.0433,-0.0406,-0.0401,-0.039,-0.0329,-0.0289,-0.0282,-0.0261,-0.0265,-0.0251,-0.0229,-0.0222,-0.0148,-0.0159,-0.0149,-0.0135,-0.0062,-0.006,-0.0058,-0.0066,-0.0064,-0.0062,0,0,0,0,0,0,-0.0446,-0.0401,-0.0394,-0.0353,-0.0325,-0.0286,-0.0268,-0.026,-0.023,-0.0231,-0.0208,-0.0199,-0.0164,-0.0146,-0.0159,-0.0101,-0.0105,-0.0101,-0.0114,-0.0112,-0.0111,-0.0116,-0.0153,0,0,0,0,0,-0.0444,-0.0414,-0.0376,-0.0344,-0.033,-0.0302,-0.0284,-0.027,-0.0241,-0.0229,-0.0204,-0.0177,-0.0148,-0.0129,-0.01,-0.0063,-0.0055,-0.0048,-0.0047,-0.0046,-0.0043,-0.0024,-0.0021,-0.0052,-0.0052,-0.0052,0,0,-0.0439,-0.0411,-0.0393,-0.0346,-0.0323,-0.0294,-0.0292,-0.0261,-0.024,-0.0225,-0.0188,-0.0169,-0.0137,-0.01,-0.0083,-0.0084,-0.0033,-0.0044,-0.0043,-0.0041,-0.0022,-0.0019,-0.0016,-0.0051,-0.0051,-0.0052,0,0,-0.0416,-0.0391,-0.0362,-0.0339,-0.0304,-0.0285,-0.0278,-0.0241,-0.0228,-0.0191,-0.0179,-0.0155,-0.0104,-0.0082,-0.0065,-0.0036,-0.0028,-0.0027,-0.002,-0.0001,0.0001,0.0003,0.0012,0.0016,-0.0024,-0.0024,-0.0024,0,-0.0415,-0.037,-0.0348,-0.0318,-0.0298,-0.0283,-0.0254,-0.0233,-0.0191,-0.0178,-0.018,-0.0118,-0.0095,-0.0054,-0.0047,-0.0033,-0.0025,-0.0031,-0.0001,0.0002,0.0004,0.0013,0.0016,-0.0024,-0.0024,-0.0024,-0.0024,0,-0.0371,-0.034,-0.0321,-0.028,-0.0258,-0.0229,-0.0205,-0.0185,-0.0175,-0.0156,-0.012,-0.0092,-0.0058,-0.0048,-0.0037,-0.0005,-0.0007,-0.0005,-0.0009,0.0007,0.0015,0.0019,-0.0024,-0.0024,-0.0024,-0.0024,0,0,-0.0352,-0.0301,-0.0295,-0.0277,-0.0238,-0.0214,-0.0186,-0.0152,-0.0137,-0.0108,-0.0085,-0.0043,-0.0042,-0.0022,-0.0009,0.0008,0.0027,0.0008,0.0009,0.0009,0.0062,0.006,0.0063,0.0032,0.0033,0.0033,0.0059,0,-0.0325,-0.0272,-0.0253,-0.0209,-0.0182,-0.0168,-0.0143,-0.0118,-0.01,-0.0075,-0.0057,-0.0028,-0.0028,-0.0016,0.0001,0.0021,0.0038,0.002,0.0053,0.0054,0.0044,0.0068,0.0067,0.0089,0.0062,0.0063,0.0063,0,-0.0286,-0.0257,-0.0212,-0.0178,-0.0165,-0.0143,-0.0112,-0.0088,-0.0059,-0.0048,-0.0027,-0.0015,0.0014,0.0009,0.0048,0.0035,0.005,0.0061,0.0063,0.0066,0.006,0.0072,0.0097,0.01,0.0069,0.0069,0.0068,0,-0.0279,-0.0229,-0.0195,-0.018,-0.014,-0.0125,-0.0107,-0.0079,-0.0061,-0.0034,-0.0022,0.0008,0.0024,0.0046,0.0065,0.0059,0.0102,0.0098,0.0111,0.011,0.0119,0.0118,0.0146,0.0129,0.0129,0.0129,0.0129,0,-0.0251,-0.0223,-0.0192,-0.0171,-0.0141,-0.012,-0.0091,-0.0073,-0.0048,-0.0025,-0.0011,0.001,0.0034,0.0058,0.0072,0.0102,0.0109,0.0118,0.0122,0.0117,0.0115,0.0126,0.0125,0.013,0.013,0.013,0.013,0,-0.0237,-0.0215,-0.0177,-0.0142,-0.0133,-0.0112,-0.0083,-0.0063,-0.0046,-0.0017,-0.0009,0.0018,0.0046,0.0067,0.0104,0.0114,0.0145,0.0149,0.0136,0.0137,0.0149,0.0147,0.0185,0.019,0.017,0.017,0.017,0,-0.0221,-0.02,-0.0163,-0.0146,-0.0129,-0.0102,-0.0083,-0.0062,-0.0043,-0.001,0.0005,0.0034,0.0059,0.0104,0.0126,0.0154,0.0158,0.0169,0.0162,0.0156,0.0157,0.0155,0.0157,0.017,0.017,0.017,0.017,0,-0.0195,-0.0185,-0.0158,-0.0128,-0.0106,-0.0082,-0.0057,-0.0044,-0.0019,0.0001,0.003,0.0049,0.0087,0.0115,0.0145,0.0161,0.0169,0.0172,0.0176,0.0172,0.0163,0.0166,0.0138,0.0171,0.0171,0.0171,0.0171,0.0171,-0.018,-0.0161,-0.0133,-0.0104,-0.0083,-0.0061,-0.0041,-0.0021,0.0004,0.0036,0.0047,0.0077,0.0103,0.0144,0.016,0.0183,0.0183,0.0189,0.0191,0.0192,0.0191,0.0159,0.0189,0.0189,0.0189,0.0189,0.0189,0,-0.0154,-0.0136,-0.0109,-0.0075,-0.0053,-0.0047,-0.002,-0.0002,0.0025,0.0049,0.0073,0.0105,0.0133,0.0157,0.0185,0.0198,0.0203,0.0205,0.0204,0.0207,0.019,0.0184,0.0201,0.0201,0.0201,0.0201,0.0201,0.0201,-0.0138,-0.0107,-0.0094,-0.0052,-0.0034,-0.0004,0.0011,0.0031,0.005,0.0087,0.011,0.0125,0.0148,0.0178,0.0203,0.0209,0.0218,0.0219,0.0226,0.021,0.0209,0.0207,0.0201,0.0221,0.0221,0.0241,0.0241,0.0241]},{"header":{"parameterUnit":"m.s-1","parameterCategory":1,"la1":30.2991,"la2":30.254,"lo1":-89.0895,"lo2":-89.0444,"dy":0.0017,"dx":0.0017,"nx":28,"ny":28,"refTime":"2024-03-13T09:00:00:Z","depth":0,"parameterNumber":3,"parameterNumberName":"V-component_of_WINDS"},"data":[0,0,0,0,0,0,0,0,0,0,0,0,0,0,0,0,0,0,0,0,0,0,0,0,0,0,0,0,0,0,0,0,0,0,0,0,0,0,0,0,0,0,0,0,0,0,0,0,0,0,0,0,0,0,0,0,0,0,1.2168,1.2168,0,1.2179,1.2179,1.2179,1.2144,1.2143,1.2142,1.2141,1.2152,1.2153,1.2154,0,0,0,0,0,0,0,0,0,0,0,0,0,1.2115,1.2117,1.2168,1.2168,1.2168,1.2179,1.2179,1.2179,1.2144,1.2143,1.2141,1.214,1.2152,1.2153,1.2155,0,0,0,0,0,0,0,0,0,0,0,0,0,1.2133,1.2117,1.2168,1.2152,1.2151,1.2179,1.2179,1.2179,1.2144,1.2143,1.2141,1.2139,1.2151,1.2153,1.2155,1.2199,0,0,1.2161,1.2162,0,0,0,0,0,0,0,0,1.2132,1.2135,1.2154,1.2153,1.2152,1.2158,1.2164,1.2186,1.2145,1.2147,1.2141,1.2139,1.2155,1.2157,1.2162,1.22,1.22,1.2161,1.2162,1.2163,1.2164,0,0,0,0,0,0,0,1.2131,1.2135,1.2172,1.2155,1.2153,1.2144,1.2145,1.2168,1.216,1.2146,1.2144,1.2146,1.2154,1.2161,1.2162,1.22,1.2161,1.2163,1.2164,1.2165,1.2271,1.2272,0,0,0,0,0,0,1.2132,1.2134,1.2172,1.2173,1.2138,1.2146,1.2147,1.2158,1.216,1.2158,1.2147,1.2144,1.2158,1.216,1.2163,1.2212,1.2163,1.2165,1.2166,1.2269,1.2271,1.2273,0,0,0,0,0,0,1.2131,1.2136,1.2172,1.2153,1.2156,1.2149,1.2161,1.2159,1.2165,1.216,1.2158,1.2155,1.2157,1.216,1.2189,1.2212,1.2166,1.2167,1.2267,1.227,1.2272,1.2314,0,0,0,0,0,0,1.213,1.2136,1.2153,1.2153,1.2158,1.2199,1.2163,1.216,1.2168,1.2165,1.2167,1.2166,1.2156,1.2187,1.2191,1.2214,1.2169,1.2265,1.2268,1.2271,1.231,1.2317,1.2323,0,0,0,0,0,1.2128,1.2165,1.2154,1.2159,1.2179,1.22,1.2203,1.219,1.2171,1.2187,1.2183,1.2166,1.2209,1.219,1.2195,1.2219,1.2264,1.2267,1.2271,1.2307,1.2316,1.2323,0,0,0,0,0,0,1.2169,1.2165,1.2153,1.2191,1.2196,1.2194,1.2215,1.22,1.2211,1.2207,1.2191,1.2192,1.2224,1.2224,1.2203,1.226,1.2233,1.2238,1.2259,1.2267,1.2273,1.2272,1.2171,0,0,0,0,0,1.2182,1.22,1.2196,1.223,1.2233,1.2224,1.2232,1.2222,1.2227,1.2229,1.2228,1.2233,1.2247,1.2257,1.227,1.231,1.2309,1.2328,1.2335,1.234,1.2345,1.2363,1.2371,1.2285,1.2285,1.2285,0,0,1.221,1.221,1.2223,1.2238,1.2241,1.2258,1.2226,1.2247,1.2259,1.2232,1.2259,1.2258,1.2263,1.2297,1.2312,1.2298,1.2368,1.2345,1.2349,1.2351,1.2368,1.2376,1.2383,1.2288,1.2287,1.2287,0,0,1.227,1.2273,1.23,1.2303,1.2307,1.23,1.2307,1.2306,1.2304,1.2331,1.231,1.2325,1.2351,1.2354,1.2359,1.2417,1.24,1.2422,1.2456,1.2474,1.2481,1.2487,1.2505,1.2512,1.2426,1.2426,1.2426,0,1.2304,1.2331,1.2316,1.2338,1.2344,1.2319,1.2346,1.2349,1.2358,1.2362,1.2347,1.2377,1.2378,1.2411,1.2425,1.2431,1.2436,1.2421,1.2481,1.2487,1.2492,1.251,1.2517,1.2429,1.2428,1.2428,1.2428,0,1.2372,1.239,1.2411,1.2419,1.2428,1.2452,1.244,1.2451,1.2439,1.2433,1.246,1.246,1.2472,1.2479,1.2469,1.251,1.2501,1.2484,1.2456,1.2503,1.2519,1.2526,1.2432,1.2431,1.2431,1.243,0,0,1.2459,1.2456,1.2464,1.2465,1.2467,1.248,1.2503,1.2513,1.2522,1.2528,1.2545,1.2566,1.2549,1.2554,1.2544,1.256,1.2603,1.254,1.254,1.255,1.2646,1.2658,1.2667,1.2592,1.2593,1.2594,1.2645,0,1.2516,1.2553,1.254,1.2578,1.2593,1.2568,1.2587,1.259,1.2584,1.2596,1.2591,1.2605,1.2582,1.2585,1.26,1.2595,1.2622,1.2591,1.2606,1.2607,1.2605,1.2675,1.2689,1.2737,1.2651,1.2653,1.2653,0,1.2588,1.2596,1.2635,1.2631,1.2637,1.2654,1.2661,1.2673,1.2675,1.2669,1.2675,1.266,1.268,1.2652,1.2679,1.2658,1.2663,1.2661,1.2663,1.2663,1.2633,1.2676,1.2752,1.2759,1.2664,1.2663,1.2662,0,1.2646,1.2665,1.269,1.2693,1.269,1.2702,1.2701,1.2701,1.2707,1.2713,1.2717,1.2726,1.273,1.2737,1.2724,1.2706,1.2752,1.2724,1.2747,1.2747,1.2757,1.2757,1.2834,1.2763,1.2763,1.2763,1.2763,0,1.271,1.2735,1.2716,1.2731,1.2757,1.2741,1.2767,1.2763,1.2762,1.2776,1.2756,1.2769,1.2751,1.2763,1.2753,1.2775,1.2778,1.2773,1.277,1.2774,1.2775,1.2777,1.2773,1.2765,1.2764,1.2764,1.2764,0,1.2779,1.2767,1.2793,1.2786,1.2785,1.2804,1.2799,1.2812,1.2805,1.2822,1.2825,1.2813,1.2825,1.2813,1.2824,1.2818,1.2847,1.2839,1.2846,1.2843,1.2867,1.2864,1.2947,1.2957,1.2881,1.2882,1.2882,0,1.282,1.2838,1.2833,1.284,1.284,1.2853,1.2858,1.2842,1.2848,1.285,1.2863,1.2872,1.2879,1.2899,1.2891,1.2899,1.2891,1.2919,1.2892,1.2895,1.2889,1.2888,1.2888,1.2925,1.2926,1.2926,1.2927,0,1.2895,1.2887,1.2896,1.2902,1.2909,1.2914,1.2917,1.2924,1.2906,1.2915,1.2926,1.2931,1.2941,1.2951,1.2956,1.2954,1.2937,1.2936,1.2941,1.2945,1.2947,1.2945,1.286,1.2934,1.2933,1.2933,1.2932,1.2932,1.295,1.2964,1.2961,1.2971,1.2971,1.2973,1.2985,1.2978,1.2987,1.2993,1.2983,1.2996,1.2995,1.3,1.3,1.3009,1.2997,1.3005,1.3007,1.3009,1.3012,1.2947,1.301,1.301,1.301,1.301,1.301,0,1.3022,1.3018,1.3027,1.3031,1.3038,1.3021,1.3022,1.3029,1.3041,1.3041,1.3047,1.3059,1.3067,1.3059,1.3066,1.3075,1.3067,1.3077,1.3075,1.3075,1.3023,1.3017,1.3083,1.3083,1.3083,1.3083,1.3083,1.3083,1.306,1.3081,1.3073,1.3093,1.309,1.3102,1.3104,1.3105,1.3105,1.3118,1.3125,1.3119,1.3115,1.3121,1.3127,1.3124,1.3127,1.3139,1.3134,1.3086,1.3079,1.3072,1.3066,1.314,1.314,1.3184,1.3184,1.3184]}]]